This demonstration page uses our WeatherBlox Daily Observations layout. Learn more.

Left ArrowRight Arrow

47.50024, -111.30081

Hourly Observations for January 14, 2016

Temp ( °F °C ) Dew Point ( °F °C ) Humidity (%) Winds ( mph kmh ) Pressure ( in mb ) Visibility ( mi km ) Precip ( " mm )
12:11 am 00:11 Cloudy with Light Rain 37 2.8 31 -0.6 79 79 WNW 13 20 29.62 1003 10 16 0.00 0.03
12:53 am 00:53 Cloudy with Light Rain 37 2.8 31 -0.6 79 79 WNW 10 17 29.62 1003 9 14 0.06 1.52
1:53 am 01:53 Cloudy with Light Rain 36 2.2 32 0 86 86 WNW 7 11 29.63 1003 10 16 0.05 1.27
2:23 am 02:23 Cloudy with Light Rain 35 1.7 31 -0.6 85 85 W 9 15 29.65 1004 10 16 0.00 0.03
2:51 am 02:51 Cloudy with Light Rain 36 2 30 -1 81 81 WSW 9 15 29.68 1005 10 16 0.01 0.25
2:53 am 02:53 Cloudy with Light Rain 35 1.7 31 -0.6 85 85 SW 9 15 29.65 1004 10 16 0.01 0.25
3:12 am 03:12 Cloudy with Light Rain 36 2 30 -1 81 81 WSW 9 15 29.68 1005 10 16 0.00 0.00
3:20 am 03:20 Cloudy with Light Rain 36 2 30 -1 81 81 WSW 8 13 29.68 1005 10 16 0.00 0.00
3:32 am 03:32 Cloudy with Light Rain 34 1 30 -1 87 87 WSW 8 13 29.68 1005 10 16 0.00 0.00
3:53 am 03:53 Cloudy 35 1.7 31 -0.6 85 85 WSW 8 13 29.67 1005 10 16 0.00 0.03
4:53 am 04:53 Cloudy 34 1.1 31 -0.6 89 89 WSW 7 11 29.67 1005 10 16 0.00 0.00
5:53 am 05:53 Cloudy 36 2.2 30 -1.1 79 79 WSW 12 19 29.68 1005 10 16 0.00 0.00
6:53 am 06:53 Cloudy with Light Rain 34 1.1 32 0 92 92 N 6 9 29.73 1007 10 16 0.00 0.03
7:53 am 07:53 Cloudy with Light Rain 34 1.1 31 -0.6 89 89 NW 5 7 29.75 1008 10 16 0.00 0.03
8:04 am 08:04 Cloudy with Light Rain 34 1 30 -1 87 87 NW 7 11 29.80 1009 10 16 0.00 0.00
8:53 am 08:53 Cloudy with Light Snow 33 0.6 31 -0.6 92 92 NW 6 9 29.77 1008 6 10 0.00 0.03
9:14 am 09:14 Cloudy with Light Snow 34 1 30 -1 87 87 WNW 7 11 29.80 1009 1 2 0.00 0.00
9:38 am 09:38 Cloudy with Light Snow 32 0 30 -1 93 93 WNW 7 11 29.80 1009 1 1 0.00 0.00
9:53 am 09:53 Cloudy with Light Snow 32 0 31 -0.6 96 96 W 6 9 29.81 1010 1 2 0.03 0.76
10:03 am 10:03 Cloudy with Light Snow 32 0 30 -1 93 93 W 8 13 29.83 1010 1 2 0.00 0.00
10:09 am 10:09 Cloudy with Light Snow 32 0 31 -0.6 96 96 W 9 15 29.83 1010 0 0 0.01 0.25
10:21 am 10:21 Cloudy with Light Snow 32 0 31 -0.6 96 96 WNW 8 13 29.83 1010 1 1 0.02 0.51
10:33 am 10:33 Cloudy with Light Snow 32 0 32 0 100 100 WNW 8 13 29.83 1010 1 1 0.03 0.76
10:44 am 10:44 Cloudy with Light Snow 32 0 32 0 100 100 W 7 11 29.83 1010 2 3 0.00 0.00
10:53 am 10:53 Cloudy with Light Snow 32 0 32 0 100 100 W 7 11 29.84 1011 2 2 0.03 0.76
10:57 am 10:57 Cloudy with Light Snow 32 0 32 0 100 100 W 9 15 29.83 1010 1 2 0.00 0.03
11:21 am 11:21 Cloudy with Light Snow 32 0 31 -0.6 96 96 WNW 8 13 29.83 1010 3 5 0.00 0.03
11:28 am 11:28 Cloudy with Light Snow 32 0 32 0 100 100 WNW 8 13 29.83 1010 4 6 0.00 0.00
11:53 am 11:53 Cloudy 33 0.6 30 -1.1 89 89 WNW 7 11 29.83 1010 10 16 0.00 0.03
12:23 pm 12:23 Cloudy with Light Snow 33 0.6 31 -0.6 92 92 WNW 7 11 29.83 1010 2 3 0.00 0.03
12:26 pm 12:26 Cloudy with Light Snow 33 0.6 31 -0.6 92 92 W 7 11 29.83 1010 1 2 0.00 0.03
12:39 pm 12:39 Cloudy with Light Snow 32 0 31 -0.6 96 96 WSW 8 13 29.83 1010 1 1 0.01 0.25
12:53 pm 12:53 Cloudy with Light Snow 32 0 31 -0.6 96 96 WSW 8 13 29.83 1010 1 1 0.02 0.51
1:26 pm 13:26 Cloudy with Light Snow 32 0 30 -1 93 93 WSW 9 15 29.83 1010 2 2 0.00 0.00
1:38 pm 13:38 Cloudy with Light Snow 32 0 30 -1 93 93 SW 9 15 29.83 1010 3 4 0.00 0.00
1:50 pm 13:50 Cloudy with Light Snow 32 0 30 -1 93 93 SW 12 19 29.83 1010 1 2 0.00 0.00
1:53 pm 13:53 Cloudy with Light Snow 32 0 31 -0.6 96 96 SW 7 11 29.84 1011 1 2 0.01 0.25
2:04 pm 14:04 Cloudy with Light Snow 32 0 30 -1 93 93 SW 10 17 29.83 1010 2 2 0.00 0.00
2:10 pm 14:10 Cloudy with Light Snow 32 0 30 -1 93 93 SW 14 22 29.83 1010 1 2 0.00 0.00
2:27 pm 14:27 Cloudy with Light Snow 30 -1 28 -2 93 93 SW 12 19 29.85 1011 3 5 0.00 0.00
2:53 pm 14:53 Cloudy 32 0 28 -2.2 85 85 SSW 12 19 29.83 1010 10 16 0.01 0.25
3:53 pm 15:53 Cloudy 33 0.6 26 -3.3 75 75 SW 14 22 29.83 1010 10 16 0.00 0.00
4:53 pm 16:53 Cloudy 33 0.6 25 -3.9 72 72 SSW 15 24 29.83 1010 10 16 0.00 0.00
5:53 pm 17:53 Cloudy 31 -0.6 24 -4.4 76 76 SW 14 22 29.82 1010 10 16 0.00 0.00
6:53 pm 18:53 Cloudy 31 -0.6 24 -4.4 76 76 SW 10 17 29.82 1010 10 16 0.00 0.00
7:53 pm 19:53 Cloudy 30 -1.1 24 -4.4 79 79 WSW 9 15 29.83 1010 10 16 0.00 0.00
8:53 pm 20:53 Cloudy 31 -0.6 23 -5 72 72 WSW 12 19 29.82 1010 10 16 0.00 0.00
9:53 pm 21:53 Cloudy 31 -0.6 23 -5 72 72 WSW 10 17 29.83 1010 10 16 0.00 0.00
10:53 pm 22:53 Cloudy 29 -1.7 22 -5.6 75 75 WSW 9 15 29.83 1010 10 16 0.00 0.03
11:53 pm 23:53 Cloudy 29 -1.7 23 -5 78 78 SW 8 13 29.84 1010 10 16 0.00 0.00

Powered by AerisWeather